This demonstration page uses our WeatherBlox Daily Observations layout. Learn more.

Left ArrowRight Arrow

Hourly Observations for January 26, 2015

Temp ( °F °C ) Dew Point ( °F °C ) Humidity (%) Winds ( mph kmh ) Pressure ( in mb ) Visibility ( mi km ) Precip ( " mm )
12:52 am 00:52 Mostly Clear 28 -2.2 25 -3.9 88 88 SE 7 11 30.07 1018 10 16 0.00 0.00
1:52 am 01:52 Clear 27 -2.8 25 -3.9 92 92 SSE 9 15 30.04 1017 10 16 0.00 0.00
2:52 am 02:52 Clear 28 -2.2 26 -3.3 92 92 SSE 9 15 30.02 1017 10 16 0.00 0.00
3:52 am 03:52 Clear 27 -2.8 25 -3.9 92 92 SSE 9 15 29.98 1015 10 16 0.00 0.00
4:52 am 04:52 Clear 27 -2.8 25 -3.9 92 92 SSE 8 13 29.97 1015 10 16 0.00 0.00
5:52 am 05:52 Clear 27 -2.8 25 -3.9 92 92 SSE 9 15 29.93 1014 10 16 0.00 0.00
6:52 am 06:52 Mostly Clear 28 -2.2 26 -3.3 92 92 SSE 8 13 29.91 1013 10 16 0.00 0.00
7:52 am 07:52 Partly Cloudy 28 -2.2 26 -3.3 92 92 SE 7 11 29.91 1013 10 16 0.00 0.00
8:52 am 08:52 Mostly Sunny 32 0 29 -1.7 88 88 SSE 3 6 29.91 1013 10 16 0.00 0.00
9:52 am 09:52 Mostly Sunny 43 6.1 34 1.1 71 71 NW 12 19 29.89 1012 10 16 0.00 0.00
10:52 am 10:52 Mostly Sunny 50 10 36 2.2 59 59 NW 9 15 29.92 1013 10 16 0.00 0.00
11:52 am 11:52 Partly Cloudy 54 12.2 37 2.8 53 53 NNW 13 20 29.92 1013 10 16 0.00 0.00
12:52 pm 12:52 Partly Cloudy 56 13.3 37 2.8 49 49 NNW 14 22 29.93 1014 10 16 0.00 0.00
1:52 pm 13:52 Partly Cloudy 57 13.9 37 2.8 47 47 NNW 17 28 29.92 1013 10 16 0.00 0.00
2:52 pm 14:52 Mostly Sunny 58 14.4 35 1.7 42 42 NNW 18 30 29.93 1014 10 16 0.00 0.00
3:52 pm 15:52 Mostly Sunny 57 13.9 35 1.7 44 44 NNW 17 28 29.96 1014 10 16 0.00 0.00
4:52 pm 16:52 Mostly Sunny 54 12.2 35 1.7 49 49 NNW 14 22 29.97 1015 10 16 0.00 0.00
5:52 pm 17:52 Mostly Clear 47 8.3 33 0.6 59 59 NW 8 13 29.99 1016 10 16 0.00 0.00
6:52 pm 18:52 Mostly Clear 48 8.9 34 1.1 58 58 WNW 12 19 30.01 1016 10 16 0.00 0.00
7:52 pm 19:52 Mostly Clear 44 6.7 34 1.1 68 68 NW 8 13 30.01 1016 10 16 0.00 0.00
8:52 pm 20:52 Mostly Clear 42 5.6 33 0.6 71 71 NNE 6 9 30.03 1017 10 16 0.00 0.00
9:52 pm 21:52 Clear 38 3.3 32 0 79 79 N 9 15 30.04 1017 10 16 0.00 0.00
10:52 pm 22:52 Clear 37 2.8 32 0 82 82 N 10 17 30.05 1018 10 16 0.00 0.00
11:52 pm 23:52 Clear 34 1.1 30 -1.1 85 85 NNW 5 7 30.06 1018 10 16 0.00 0.00

Powered by AerisWeather